Regional Weather Roundup
Issued by NWS

Home | Current Version | Previous Version | Text Only | Print | Product List | Glossary Off
Versions: 1 2 3 4 5 6 7 8 9 10 11 12 13 14 15 16 17 18 19 20 21 22 23 24 25 26 27 28 29 30 31 32 33 34 35 36 37 38 39 40 41 42 43 44 45 46 47 48 49 50

000
ASUS45 KBOU 210607
RWRCO

WEATHER ROUNDUP FOR COLORADO
NATIONAL WEATHER SERVICE DENVER/BOULDER CO
1100 PM MST SAT DEC 20 2014

NOTE: "FAIR" INDICATES FEW OR NO CLOUDS BELOW 12000 FEET WITH NO
SIGNIFICANT WEATHER AND/OR OBSTRUCTIONS TO VISIBILITY.

COZ001>005-013-030-031-210700-
...NORTHWEST COLORADO...

CITY           SKY/WX    TMP DP  RH WIND       PRES   REMARKS
CRAIG          CLOUDY    27  25  92 CALM      30.04F
HAYDEN         CLOUDY    27  23  86 CALM      30.03F
MEEKER         CLOUDY    30  26  85 NE3       30.05F
MOUNT WERNER   NOT AVBL
STEAMBOAT SPGS CLOUDY    25  24  95 CALM      30.03F
WALDEN         CLOUDY    27  21  80 SW9       29.96F WCI  17
$$

COZ006>008-011-210700-
...WEST CENTRAL VALLEYS...

CITY           SKY/WX    TMP DP  RH WIND       PRES   REMARKS
GRAND JUNCTION CLOUDY    33  31  92 CALM      30.12F
MONTROSE       FLURRIES  32  27  81 NE5       30.14R WCI  27
EAGLE          CLOUDY   N/A N/A N/A CALM      30.09
RIFLE          CLOUDY    30  28  92 E3        30.11S FOG
DELTA          CLOUDY    36  28  75 CALM      30.13F
NUCLA          CLOUDY    34  28  80 CALM      30.16S
$$

COZ017>023-064>068-210700-
...SOUTHWEST COLORADO...

CITY           SKY/WX    TMP DP  RH WIND       PRES   REMARKS
DURANGO        CLOUDY    30  26  85 NE5       30.11R WCI  25
CORTEZ         CLOUDY    32  28  85 E3        30.13R
PAGOSA SPRINGS CLOUDY    29  27  92 CALM      30.10R
TELLURIDE      CLOUDY    28  23  81 CALM      30.13R
WOLF CREEK PAS SNOW      16  16 100 MISG      30.07R VSB 1/4
$$

COZ009-010-012-014-032>034-037-058>063-210700-
...CENTRAL COLORADO...

CITY           SKY/WX    TMP DP  RH WIND       PRES   REMARKS
ASPEN          LGT SNOW  24  23  96 CALM      30.06R FOG
BUENA VISTA    MOCLDY    26  17  68 SE3       29.98S
COPPER MTN     CLOUDY    19  14  79 W29G37    29.99S WCI   1
BERTHOUD PASS  CLOUDY    12   5  73 MISG      29.93S
COTTONWOOD PAS CLOUDY    32  18  55 W7G21     29.98S WCI  26
GUNNISON       CLOUDY    21  18  86 CALM      30.11S
KREMMLING      CLOUDY    23  19  86 CALM      30.04S
LEADVILLE      FLURRIES  22  17  81 N9        30.01R WCI  12
SALIDA         PTCLDY    35  22  59 SW20G26   30.05S WCI  23
SUNLIGHT       LGT SNOW  23  21  93 CALM      30.06S
WILKERSON PASS MOCLDY    18  12  79 SW7       29.99S WCI   8
$$

COZ069>075-210700-
...SAN LUIS VALLEY/SANGRE DE CRISTO MOUNTAINS...

CITY           SKY/WX    TMP DP  RH WIND       PRES   REMARKS
ALAMOSA        PTCLDY    16  11  80 E6        30.02F WCI   7
LA VETA PASS   PTCLDY    21  16  79 S13G25    29.98F WCI   9
SAGUACHE       MOCLDY    28  21  74 N9        30.04S WCI  20
$$

COZ035-036-038>040-210700-
...NORTHERN COLORADO FRONT RANGE...

CITY           SKY/WX    TMP DP  RH WIND       PRES   REMARKS
DENVER INTL AP MOCLDY    36  21  54 SW6       29.90F
DMNS CITY PARK   N/A     36  22  56 S5        29.91S
AURORA         MOCLDY    37  22  54 S5        29.92F
FRONT RANGE AP MOCLDY    36  27  69 SW8       29.91S
ERIE MUNI ARPT   N/A     26  21  80 CALM      29.91S
BOULDER MUN AP MOCLDY    39  23  52 W9        29.91S
CENTENNIAL     PTCLDY    32  22  66 E5        29.91F WCI  27
BROOMFIELD     MOCLDY    36  21  55 CALM      29.91S
FORT COLLINS   MOCLDY    28  16  59 N6        29.93R WCI  22
LONGMONT       MOCLDY    29  21  72 W6        29.94R WCI  22
$$

COZ041-046-047-076>085-087-088-210700-
...PIKES PEAK/PALMER DIVIDE AND SOUTHERN FOOTHILLS...

CITY           SKY/WX    TMP DP  RH WIND       PRES   REMARKS
COLO. SPRINGS  MOCLDY    36  21  54 W5        29.93F
A. F. ACADEMY  PTCLDY    26  18  70 NW3       29.92F
ELLICOTT       NOT AVBL
FALCON         MOCLDY    29  20  67 NW6       29.93F WCI  23
FORT CARSON    MOCLDY    35  17  49 SW2       29.91F
LIMON          CLOUDY    29  21  72 CALM      29.93F
MONUMENT HILL  PTCLDY    28  21  74 SW7       29.92S WCI  21
TRINIDAD       CLOUDY    37  18  46 W12       29.92F
$$

COZ042>045-048>051-090-091-210700-
...NORTHEAST COLORADO...

CITY           SKY/WX    TMP DP  RH WIND       PRES   REMARKS
GREELEY ARPT   MOCLDY    21  10  63 NW10      29.91R WCI  10
AKRON          CLOUDY    33  21  61 SE9       29.90F WCI  25
BURLINGTON     CLOUDY    32  27  81 W9        29.93S WCI  24
WRAY           CLOUDY    30  27  90 SW7       29.93F WCI  23
STERLING       CLOUDY    30  27  86 SE6       29.89F WCI  24
HOLYOKE        MOCLDY    36  32  87 S6        29.90F
FORT MORGAN    NOT AVBL
$$

COZ086-089-092>099-210700-
...SOUTHEAST COLORADO...

CITY           SKY/WX    TMP DP  RH WIND       PRES   REMARKS
PUEBLO         MOCLDY    30  21  69 SW6       29.92F WCI  24
LA JUNTA       CLOUDY    31  26  82 W7        29.92R WCI  24
LAMAR          CLOUDY    27  25  92 CALM      29.90S
SPRINGFIELD      N/A     30  26  85 SW9       29.91S WCI  22
$$


USA.gov is the U.S. government's official web portal to all federal, state and local government web resources and services.